Wetbulb
36.52 37.43 36.90 35.32 35.35 36.23 35.32 35.51 33.12 34.02 34.24 39.17 41.81 42.78 43.65 44.83 45.50 45.39 45.41 45.32 44.31 42.52 42.03 41.76 40.94 40.32 39.94 40.47 40.87 40.64 39.27 37.66 36.54 36.37 35.28 34.54 34.79 35.90 36.15 36.49 36.94 36.85 36.53 35.17
32.60 37.26 37.36 33.54 35.62 36.09 36.37 36.82 37.58 37.47 36.57 43.52 44.39 44.91 44.06 44.73 45.20 44.78 45.19 44.26 42.66 41.49 41.08 40.25 40.00 39.56 40.09 40.27 40.62 40.27 37.57 36.14 35.89 34.89 34.15 34.27 34.95 35.81 36.73 36.77 36.18 35.60 34.35 33.90
30.51 35.35 34.81 33.54 32.80 35.75 35.40 37.00 36.83 32.74 37.60 43.67 42.75 43.40 44.45 45.18 45.62 45.19 44.84 42.94 41.14 41.07 40.84 40.46 40.41 40.36 39.91 40.47 40.21 38.22 36.62 35.58 36.12 34.23 33.64 34.30 35.61 35.84 35.73 35.13 35.92 34.86 34.29 34.07
31.68 32.91 28.92 33.98 37.79 38.48 37.26 36.91 37.95 40.46 42.65 43.96 44.44 45.91 46.49 47.23 46.43 45.58 43.91 41.59 41.69 41.72 41.07 41.17 41.49 41.18 41.18 40.56 38.98 37.62 35.66 35.33 34.93 33.89 33.65 34.68 35.16 34.28 34.51 35.02 34.87 34.49 34.40 33.72
31.41 31.31 33.48 34.84 35.29 34.50 33.96 36.37 39.84 39.07 42.75 44.34 46.09 46.62 45.58 46.86 46.56 45.10 43.23 42.35 42.50 42.56 41.62 41.75 41.26 40.94 40.54 39.64 38.41 36.92 35.75 35.40 34.65 33.47 33.87 34.27 33.33 33.21 34.19 34.62 34.65 35.40 34.56 33.22
32.72 29.12 28.06 32.83 36.60 39.50 39.47 34.19 41.75 41.31 42.07 43.33 45.69 41.39 43.86 47.88 46.09 45.10 43.26 43.16 42.58 42.76 42.09 41.61 41.22 41.24 40.37 38.56 37.94 36.85 35.40 34.78 34.95 33.79 34.04 32.94 33.12 33.85 34.95 34.99 34.02 35.72 34.52 35.04
30.91 30.85 31.91 36.83 38.29 42.51 33.12 36.03 41.63 43.00 43.65 44.51 43.65 45.30 46.89 47.93 45.71 44.41 43.23 42.88 43.21 42.81 41.31 41.01 41.19 41.16 39.95 38.53 37.56 37.81 35.65 34.76 34.82 33.86 33.60 33.43 33.94 34.84 35.67 35.29 34.84 34.73 34.34 34.95
31.14 30.20 27.73 40.38 40.12 36.48 38.88 41.39 43.49 45.06 45.90 45.42 46.68 46.72 45.63 45.52 44.98 43.91 42.92 42.68 42.78 41.96 40.87 41.48 41.53 40.92 39.83 38.11 39.09 38.53 35.93 34.05 34.62 33.80 33.81 33.39 33.67 35.06 35.33 35.16 35.00 34.13 33.96 33.88
31.51 32.44 39.51 41.43 39.77 43.00 43.30 43.12 45.13 45.73 47.43 47.44 47.26 46.78 46.03 45.82 45.24 44.36 43.47 43.12 43.20 42.39 41.54 41.49 41.59 41.16 39.47 39.03 38.96 38.19 36.59 33.29 34.36 34.17 34.05 33.55 32.64 32.81 34.49 35.12 34.75 34.22 32.69 32.90
35.01 36.96 37.54 39.86 43.60 44.82 46.46 46.27 47.71 48.50 48.44 48.26 47.63 48.06 46.53 46.50 45.90 45.08 44.45 43.11 43.31 42.67 41.09 40.52 41.42 41.21 40.73 39.85 39.56 38.15 36.42 34.02 33.69 33.10 33.68 33.61 32.96 32.81 32.03 33.23 34.13 34.18 33.41 31.77
35.25 37.71 40.34 42.91 44.34 45.62 46.80 48.26 48.48 49.41 49.20 48.65 48.42 48.25 47.38 46.65 45.95 45.44 44.68 43.80 43.54 42.34 41.34 40.74 41.55 41.03 40.44 39.79 39.68 37.95 36.81 36.14 32.48 33.15 33.41 33.19 33.65 32.30 32.31 32.53 33.54 34.78 36.20 36.15
33.50 39.49 38.44 40.82 45.47 47.17 46.99 47.56 48.77 48.85 49.05 49.68 49.12 48.44 48.14 47.53 46.60 45.89 44.96 44.31 43.54 42.93 41.65 41.04 41.13 40.69 40.04 40.38 39.71 38.41 36.58 37.40 33.80 31.86 32.69 33.20 33.02 33.58 33.64 33.07 33.15 33.67 33.88 35.98
37.71 41.42 42.03 44.46 46.44 48.44 48.67 49.66 50.15 49.88 50.09 49.25 49.87 49.99 48.85 48.02 46.95 42.15 45.07 44.24 43.29 42.43 41.70 41.31 41.29 40.79 40.76 41.09 41.06 39.48 36.95 37.09 38.67 33.16 31.01 30.53 31.26 31.42 31.48 34.07 33.63 33.27 33.54 34.18
43.59 44.00 45.27 47.65 46.75 49.80 50.49 51.09 50.22 50.52 50.78 50.67 50.52 49.32 48.93 48.46 46.59 46.13 45.17 44.37 43.79 43.07 42.20 41.52 41.18 40.62 41.18 41.57 41.31 40.42 39.36 32.66 38.06 38.37 32.50 30.91 30.22 30.38 30.92 30.84 31.17 31.12 33.37 33.19
45.20 47.65 47.53 48.67 48.90 49.56 51.12 50.95 50.24 50.55 50.36 49.97 50.67 49.23 48.94 47.52 47.12 46.26 45.69 44.53 44.19 43.38 42.87 42.39 41.18 40.68 41.81 41.69 41.36 40.32 38.38 38.55 39.23 38.72 36.92 32.36 31.48 30.73 30.64 30.13 29.78 30.07 31.68 32.62
46.95 48.22 48.61 47.47 47.49 48.42 49.31 49.61 49.28 48.92 49.54 49.62 49.19 48.90 48.54 48.28 47.78 47.02 45.96 44.96 44.77 43.51 43.06 42.50 41.73 41.27 41.91 41.63 42.47 42.37 41.05 33.16 35.30 38.76 38.17 36.18 32.64 31.03 30.38 29.98 29.41 28.97 29.04 29.65
43.78 43.23 44.79 45.40 46.06 47.17 47.18 48.36 49.01 49.00 49.28 49.32 48.96 48.79 48.53 47.88 47.60 47.11 46.28 45.66 44.83 44.57 43.78 43.59 42.31 42.24 41.98 41.36 42.67 42.89 42.77 41.48 34.18 39.29 37.96 37.54 35.14 31.60 31.03 30.31 29.90 29.37 29.54 29.83
44.87 45.51 46.58 46.28 46.82 47.54 46.53 47.56 48.03 48.34 47.85 48.48 48.69 48.58 47.42 47.72 47.54 47.33 46.56 46.13 45.60 45.62 44.96 43.98 43.54 42.84 42.70 41.72 42.58 42.96 42.80 41.90 40.80 39.82 38.75 37.39 37.38 36.88 33.54 30.33 29.32 29.36 29.75 29.86
45.65 45.52 46.77 46.30 46.17 46.17 47.40 46.28 47.41 47.23 47.07 47.97 48.65 47.65 47.00 46.10 47.92 47.56 46.78 44.06 41.96 46.75 45.55 44.80 32.47 39.40 43.15 37.24 39.56 43.55 42.93 42.51 41.75 41.21 40.45 36.50 38.22 37.42 36.66 35.91 33.13 30.47 29.25 28.88
43.75 45.45 46.65 46.76 47.02 46.39 46.39 47.29 46.57 45.96 44.87 46.01 46.79 45.86 46.48 36.26 39.01 44.93 47.16 46.89 47.08 47.08 46.79 44.35 43.17 44.70 43.79 39.04 34.99 43.84 43.37 42.56 41.78 41.14 40.39 39.88 39.11 38.15 36.28 33.12 34.95 35.35 35.56 33.62
44.02 44.00 44.78 46.25 46.40 47.00 46.62 46.85 46.17 45.11 43.46 41.89 44.51 40.74 43.63 46.90 41.91 40.93 48.64 49.26 48.04 46.05 44.58 37.00 44.75 46.36 46.02 42.55 42.51 44.92 44.14 43.34 42.74 42.51 41.86 40.71 39.94 38.27 37.60 37.17 36.10 36.35 37.38 36.69
44.00 44.76 44.42 45.56 45.92 45.86 46.71 46.39 45.97 45.58 44.44 40.77 37.17 37.89 40.07 47.64 48.21 48.15 48.05 45.81 49.04 35.17 45.02 48.73 47.98 39.67 43.73 33.76 45.97 45.72 44.64 43.47 43.29 44.00 43.00 42.18 41.55 36.28 39.16 38.95 36.41 37.01 36.99 37.17
43.29 43.67 46.18 46.29 45.40 46.13 46.80 46.72 46.24 45.40 44.67 43.44 42.00 43.77 43.90 43.81 43.64 44.80 46.76 44.31 43.92 40.90 47.54 48.51 35.99 32.37 32.14 43.35 46.84 46.58 45.42 43.81 43.08 42.83 43.02 42.36 42.08 37.85 41.91 39.72 37.72 39.27 34.81 37.73
43.18 43.65 44.03 45.86 47.24 46.72 45.78 46.87 46.45 46.42 45.67 44.81 43.44 42.29 42.89 43.57 45.32 44.17 43.59 38.55 35.31 37.17 42.89 39.54 37.20 32.07 30.78 46.45 47.21 46.75 45.85 44.94 44.31 44.26 43.54 36.36 35.72 37.53 41.90 37.86 40.93 39.46 37.67 36.99
42.47 42.91 43.85 44.59 45.71 46.42 47.13 47.12 47.28 46.67 46.38 46.16 45.17 44.81 44.30 44.81 42.76 42.77 42.96 42.04 36.18 38.90 42.01 35.97 34.02 34.22 45.30 46.98 46.68 46.25 46.18 46.14 45.36 43.83 43.41 43.11 41.51 33.72 35.17 39.33 37.32 36.08 34.45 36.99
42.14 42.63 44.00 44.75 45.60 46.56 46.72 46.83 46.88 47.09 46.06 44.42 44.60 45.36 45.54 45.04 44.51 44.17 43.31 39.10 41.67 38.30 41.51 41.03 39.72 40.46 43.24 45.37 44.85 44.35 44.89 45.62 43.53 42.40 42.63 43.16 42.94 41.93 36.38 39.75 36.08 36.79 34.27 33.18
43.42 37.20 44.18 44.82 45.63 46.08 46.19 45.66 46.70 46.53 45.36 45.71 44.55 43.73 43.54 44.88 43.92 42.21 38.43 41.01 40.57 40.30 39.67 39.10 41.18 39.57 40.93 40.60 40.76 42.84 44.30 44.50 40.48 43.65 43.51 43.54 43.29 36.44 35.90 36.44 35.17 34.09 33.90 33.36
MSLP
1022.63 1023.15 1023.95 1024.43 1024.31 1023.93 1023.26 1023.24 1022.91 1022.96 1022.23 1021.36 1020.96 1020.57 1020.56 1020.55 1020.48 1020.28 1020.17 1020.22 1020.36 1020.45 1020.53 1020.50 1020.29 1019.91 1019.44 1018.84 1018.27 1017.76 1017.14 1016.81 1016.42 1016.59 1016.48 1015.85 1015.05 1014.17 1013.49 1012.90 1012.29 1011.72 1011.14 1010.72
1023.57 1024.14 1024.32 1024.92 1025.17 1024.85 1024.34 1023.83 1023.16 1022.81 1022.37 1021.84 1021.20 1020.75 1020.54 1020.40 1020.45 1020.29 1020.38 1020.54 1020.71 1020.80 1020.86 1020.73 1020.50 1020.07 1019.42 1018.88 1018.16 1017.78 1017.52 1017.12 1016.88 1017.00 1016.43 1015.69 1014.81 1014.00 1013.38 1012.81 1012.16 1011.45 1010.82 1010.33
1023.90 1024.57 1024.89 1025.43 1026.67 1026.12 1025.79 1025.28 1024.36 1023.60 1023.27 1022.08 1021.28 1020.93 1020.66 1020.52 1020.51 1020.53 1020.76 1020.99 1021.15 1021.23 1021.12 1021.03 1020.73 1020.09 1019.45 1018.76 1018.35 1018.15 1017.82 1017.52 1017.50 1017.19 1016.48 1015.80 1014.89 1014.29 1013.79 1013.10 1012.39 1011.71 1011.07 1010.60
1024.42 1025.06 1025.47 1027.22 1027.44 1027.02 1026.30 1025.94 1025.35 1024.10 1023.15 1022.40 1021.64 1021.19 1021.07 1021.17 1021.05 1021.09 1021.35 1021.52 1021.63 1021.64 1021.55 1021.35 1020.95 1020.14 1019.60 1018.90 1018.53 1018.21 1018.08 1017.94 1018.01 1017.50 1016.84 1016.09 1015.24 1014.81 1014.27 1013.61 1012.79 1012.20 1011.63 1011.30
1024.62 1025.05 1026.56 1027.30 1028.10 1028.01 1027.30 1026.05 1025.65 1024.91 1023.74 1022.74 1021.80 1021.05 1021.33 1021.86 1021.87 1022.01 1022.10 1022.09 1022.06 1022.06 1021.89 1021.50 1021.15 1020.44 1019.71 1019.11 1018.69 1018.51 1018.38 1018.64 1018.62 1018.10 1017.33 1016.61 1016.00 1015.44 1014.80 1014.10 1013.50 1012.77 1012.60 1012.46
1025.06 1025.08 1026.52 1028.23 1028.20 1027.94 1027.36 1026.16 1025.87 1025.27 1024.35 1023.25 1021.96 1020.37 1021.49 1022.04 1022.38 1022.38 1022.39 1022.50 1022.43 1022.29 1021.93 1021.70 1021.39 1020.68 1019.84 1019.35 1018.88 1018.87 1019.27 1019.67 1019.33 1018.62 1017.88 1017.27 1016.69 1016.02 1015.36 1014.63 1014.28 1013.52 1013.48 1013.48
1025.78 1026.10 1027.56 1028.08 1027.78 1026.94 1026.87 1027.27 1026.27 1025.44 1024.69 1023.87 1023.06 1023.08 1022.76 1022.52 1022.61 1022.76 1022.70 1022.76 1022.74 1022.40 1022.16 1022.09 1021.69 1020.99 1020.06 1019.69 1019.30 1019.63 1019.90 1020.29 1019.71 1019.15 1018.45 1017.84 1017.15 1016.53 1015.90 1015.26 1014.93 1014.46 1014.31 1014.39
1027.36 1027.00 1028.16 1028.16 1027.27 1027.22 1027.91 1027.32 1026.15 1025.46 1024.78 1024.28 1023.76 1023.21 1023.06 1022.93 1022.86 1022.90 1022.75 1022.84 1022.85 1022.61 1022.48 1022.38 1021.98 1021.37 1020.51 1020.07 1020.09 1020.05 1020.17 1020.62 1020.21 1019.73 1019.06 1018.40 1017.70 1017.11 1016.52 1015.98 1015.55 1015.26 1015.23 1015.33
1029.02 1028.62 1028.74 1028.71 1028.42 1027.98 1027.57 1026.66 1025.93 1025.41 1024.81 1024.39 1023.81 1023.26 1023.11 1023.07 1023.00 1023.06 1023.00 1022.96 1023.11 1022.82 1022.68 1022.62 1022.39 1021.90 1021.15 1020.76 1020.51 1020.27 1020.24 1021.00 1020.85 1020.26 1019.71 1019.15 1018.56 1018.04 1017.35 1016.79 1016.35 1016.14 1016.22 1016.15
1029.78 1029.45 1029.14 1028.47 1027.90 1027.29 1026.73 1026.18 1025.61 1025.07 1024.62 1024.28 1023.77 1023.38 1023.18 1023.16 1023.17 1023.09 1023.13 1023.24 1023.28 1023.06 1022.92 1022.88 1022.82 1022.41 1021.94 1021.40 1020.92 1020.44 1020.55 1021.30 1021.39 1020.98 1020.40 1020.08 1019.58 1019.05 1018.55 1017.86 1017.39 1017.02 1017.08 1017.25
1030.26 1029.64 1028.85 1027.81 1027.20 1026.82 1026.30 1025.77 1025.04 1024.64 1024.36 1024.04 1023.72 1023.21 1023.28 1023.25 1023.35 1023.44 1023.45 1023.60 1023.66 1023.49 1023.38 1023.34 1023.24 1022.97 1022.59 1022.04 1021.41 1020.87 1020.90 1021.19 1021.79 1021.51 1021.32 1020.92 1020.64 1020.34 1019.78 1019.36 1018.76 1018.12 1017.70 1017.62
1030.83 1029.85 1029.65 1028.21 1027.15 1026.51 1025.81 1025.16 1024.67 1024.24 1023.92 1023.69 1023.64 1023.27 1023.37 1023.40 1023.63 1023.64 1023.73 1023.93 1023.79 1023.80 1023.87 1023.83 1023.71 1023.60 1023.28 1022.75 1022.11 1021.62 1021.26 1021.17 1021.92 1022.10 1021.98 1021.79 1021.38 1021.06 1020.81 1020.32 1019.85 1019.39 1019.06 1018.82
1030.72 1029.87 1029.27 1028.04 1027.05 1026.12 1025.13 1024.50 1024.02 1023.77 1023.56 1023.41 1023.39 1023.39 1023.39 1023.48 1023.83 1024.33 1024.04 1024.12 1024.24 1024.31 1024.33 1024.26 1024.15 1024.15 1024.03 1023.50 1022.82 1022.22 1022.07 1021.87 1021.68 1022.30 1022.52 1022.45 1022.30 1022.01 1021.62 1021.35 1021.09 1020.74 1020.51 1020.34
1030.14 1029.31 1027.75 1026.83 1026.29 1025.55 1024.59 1023.75 1023.30 1023.07 1023.16 1023.32 1023.35 1023.46 1023.58 1023.66 1024.00 1024.01 1024.17 1024.45 1024.61 1024.64 1024.68 1024.68 1024.59 1024.64 1024.71 1024.28 1023.62 1022.99 1022.74 1022.72 1022.18 1022.32 1023.06 1023.28 1023.25 1023.00 1022.74 1022.51 1022.28 1022.29 1022.04 1021.75
1029.38 1028.46 1027.89 1027.15 1026.33 1025.24 1024.25 1023.38 1022.86 1022.79 1023.14 1023.35 1023.44 1023.52 1023.72 1023.89 1024.06 1024.33 1024.60 1024.73 1024.80 1024.87 1024.96 1024.87 1024.98 1025.14 1025.12 1024.87 1024.42 1024.05 1023.71 1023.45 1023.03 1022.90 1023.19 1023.73 1023.95 1023.91 1023.57 1023.42 1023.35 1023.28 1023.03 1022.81
1029.02 1028.26 1027.71 1027.17 1026.57 1025.63 1024.81 1024.14 1023.56 1023.44 1023.58 1023.70 1023.77 1023.92 1024.15 1024.37 1024.54 1024.69 1024.84 1024.98 1024.83 1024.87 1025.12 1025.32 1025.42 1025.70 1025.68 1025.36 1025.05 1024.78 1024.61 1024.56 1024.01 1023.52 1023.44 1023.56 1024.00 1024.21 1024.22 1024.19 1024.28 1024.21 1024.13 1024.02
1029.46 1028.73 1028.26 1027.66 1027.09 1026.42 1025.89 1025.42 1024.83 1024.53 1024.30 1024.26 1024.39 1024.56 1024.64 1024.83 1024.90 1024.97 1025.06 1025.17 1025.25 1025.34 1025.45 1025.51 1025.83 1026.10 1026.18 1026.09 1025.74 1025.50 1025.29 1025.08 1024.74 1024.52 1024.29 1024.10 1024.16 1024.32 1024.79 1024.92 1024.97 1025.16 1025.23 1025.13
1030.38 1029.84 1029.34 1028.84 1028.17 1027.47 1027.06 1026.54 1026.07 1025.77 1025.54 1025.34 1025.29 1025.19 1025.40 1025.28 1025.21 1025.30 1025.48 1025.58 1025.49 1025.45 1025.64 1025.90 1026.21 1026.48 1026.62 1026.76 1026.63 1026.27 1025.86 1025.66 1025.50 1025.28 1025.27 1025.27 1024.92 1024.84 1024.95 1025.33 1025.54 1025.82 1026.01 1026.03
1030.65 1030.10 1029.73 1029.41 1029.11 1028.69 1028.14 1027.64 1027.13 1026.97 1026.75 1026.39 1026.03 1026.08 1026.29 1026.38 1026.05 1025.98 1025.99 1026.03 1025.93 1025.30 1025.87 1026.23 1026.59 1026.73 1026.93 1027.93 1027.56 1026.92 1026.39 1026.09 1025.97 1026.01 1025.97 1025.95 1025.91 1025.76 1025.72 1025.77 1026.00 1026.36 1026.58 1026.74
1031.21 1030.75 1030.13 1029.79 1029.53 1029.29 1028.98 1028.79 1028.36 1028.10 1028.07 1027.62 1027.34 1027.31 1027.11 1027.43 1027.24 1026.83 1026.41 1026.11 1026.20 1026.26 1026.44 1026.60 1026.78 1026.81 1027.09 1027.38 1027.52 1027.27 1026.87 1026.62 1026.52 1026.61 1026.71 1026.59 1026.70 1026.78 1026.87 1026.97 1026.86 1026.88 1026.88 1026.85
1031.35 1031.11 1030.79 1030.22 1029.94 1029.81 1029.66 1029.61 1029.48 1029.20 1029.28 1029.05 1028.55 1028.64 1028.20 1027.78 1027.75 1027.36 1026.51 1026.31 1026.97 1027.25 1027.09 1027.09 1026.98 1026.93 1027.15 1027.46 1027.73 1027.38 1027.12 1027.01 1026.95 1026.91 1027.05 1027.27 1027.40 1027.52 1027.68 1027.80 1027.84 1027.89 1027.79 1027.71
1031.27 1031.11 1031.00 1030.89 1030.44 1030.16 1030.05 1029.94 1029.85 1029.83 1029.80 1029.91 1029.55 1029.19 1028.60 1028.20 1027.99 1027.64 1027.77 1028.31 1027.88 1028.01 1027.76 1027.38 1027.40 1027.41 1027.41 1027.86 1027.49 1027.40 1027.25 1027.11 1027.15 1027.24 1027.39 1027.58 1027.80 1028.35 1028.46 1028.50 1028.71 1028.72 1028.71 1028.62
1031.40 1031.22 1030.94 1030.82 1030.72 1030.46 1030.32 1030.16 1030.08 1029.95 1029.93 1030.01 1030.04 1029.91 1029.74 1029.64 1029.51 1028.86 1028.39 1029.03 1028.97 1028.62 1028.07 1028.05 1028.85 1028.64 1028.50 1027.91 1027.61 1027.45 1027.32 1027.34 1027.33 1027.36 1027.55 1027.89 1028.19 1028.45 1028.35 1028.65 1028.98 1029.07 1029.16 1029.03
1031.60 1031.40 1031.17 1030.93 1030.72 1030.43 1030.23 1030.33 1030.35 1030.18 1030.15 1030.25 1030.65 1030.75 1030.38 1029.99 1029.83 1030.01 1029.96 1029.82 1029.65 1029.28 1029.13 1029.32 1029.00 1028.99 1029.01 1027.92 1027.69 1027.54 1027.47 1027.44 1027.51 1027.62 1027.70 1027.98 1028.24 1028.49 1028.62 1028.88 1028.93 1029.19 1029.36 1029.31
1031.82 1031.51 1031.31 1031.00 1030.57 1030.43 1030.46 1030.37 1030.09 1030.11 1030.16 1030.26 1030.47 1030.70 1030.73 1030.60 1030.55 1030.48 1030.37 1030.23 1030.01 1029.67 1029.42 1029.46 1029.33 1028.91 1027.80 1027.89 1027.71 1027.53 1027.43 1027.40 1027.49 1027.75 1027.84 1028.04 1028.22 1028.50 1028.66 1028.78 1028.97 1029.22 1029.46 1029.38
1031.88 1031.58 1031.35 1031.21 1031.02 1030.81 1030.77 1030.73 1030.41 1030.31 1030.37 1030.52 1030.65 1030.78 1030.84 1030.83 1030.84 1030.70 1030.64 1030.65 1030.34 1030.10 1029.75 1029.42 1029.23 1028.87 1028.34 1028.13 1027.95 1027.66 1027.42 1027.26 1027.35 1027.53 1027.69 1027.68 1027.92 1028.28 1028.57 1028.57 1028.90 1028.90 1029.13 1029.29
1031.88 1031.91 1031.47 1031.09 1030.98 1031.06 1031.24 1031.21 1030.90 1030.76 1030.86 1031.01 1030.99 1031.14 1031.05 1030.98 1030.91 1030.97 1031.05 1030.88 1030.76 1030.53 1030.33 1030.04 1029.38 1029.20 1028.84 1028.67 1028.42 1027.96 1027.55 1027.36 1027.61 1027.26 1027.31 1027.48 1027.58 1028.19 1028.37 1028.39 1028.59 1028.80 1028.94 1029.03
Wind_Speed
5 5 6 7 9 9 9 4 6 7 12 11 10 10 8 6 8 10 12 12 12 12 12 13 14 15 16 16 17 17 18 18 17 16 13 13 13 12 12 11 10 10 9 7
3 6 16 12 16 16 14 12 9 8 11 11 8 7 7 8 10 12 12 12 13 13 14 14 15 15 16 17 18 18 17 16 17 15 14 14 14 13 12 13 13 10 9 7
4 2 5 7 8 11 12 13 8 9 6 9 8 8 9 11 11 12 11 12 12 13 13 14 15 16 17 17 17 17 16 17 17 15 14 14 13 13 13 13 11 11 10 8
1 3 2 5 7 4 12 12 11 8 10 9 9 8 9 11 11 11 11 12 12 11 13 14 15 16 17 17 17 16 16 17 17 16 15 14 13 13 13 11 11 9 10 10
2 3 6 3 6 6 6 10 13 12 13 12 12 6 12 12 10 10 10 9 9 11 11 13 15 17 17 17 17 17 18 19 15 14 14 14 13 13 12 11 9 11 11 11
1 2 4 4 9 9 6 3 15 14 13 14 15 4 9 11 9 9 8 8 10 11 12 14 15 16 17 18 18 19 17 16 13 14 14 13 12 10 10 9 8 12 14 13
5 5 5 9 13 10 4 6 15 13 11 11 9 8 9 7 6 7 8 9 10 11 12 13 14 16 17 17 19 17 14 14 13 14 13 12 11 10 11 10 8 13 15 15
3 3 5 13 5 3 4 10 11 11 10 10 9 6 4 5 7 8 9 9 11 11 11 12 14 15 17 18 17 16 14 13 14 13 11 10 13 11 11 10 9 13 12 12
5 4 7 11 8 7 6 9 10 11 11 9 8 6 4 6 7 7 8 8 9 10 11 12 14 15 16 17 17 15 15 12 13 13 12 12 12 12 10 9 8 9 9 10
4 4 9 9 7 4 10 10 12 10 10 7 7 5 4 6 6 7 8 9 9 10 11 12 13 14 15 16 16 15 15 13 10 12 12 12 9 9 10 9 8 8 8 9
3 2 8 3 4 10 12 12 11 10 8 7 5 2 3 5 6 6 7 7 7 9 10 12 12 13 14 15 16 15 14 13 9 9 11 10 9 10 9 11 12 7 9 9
2 8 7 10 10 14 15 13 11 10 8 4 4 2 2 4 5 5 7 7 7 9 9 10 11 12 13 14 15 15 14 12 8 8 9 8 7 7 16 21 25 24 22 11
5 6 12 18 17 14 12 14 11 8 7 4 1 1 1 4 5 3 5 6 7 8 8 9 10 11 12 13 14 15 14 13 10 8 8 8 8 8 8 9 19 25 22 20
7 10 7 6 9 15 12 10 6 4 3 2 1 3 3 4 3 4 6 6 6 6 7 7 9 10 10 11 12 14 13 8 11 11 8 7 7 7 7 7 7 8 13 15
11 6 7 10 11 11 9 7 7 8 6 5 4 4 4 4 4 5 5 4 5 5 6 7 8 9 9 9 10 12 11 10 10 10 10 8 6 7 7 7 7 6 6 7
11 9 10 11 12 13 12 11 9 8 7 6 6 5 5 5 4 4 4 4 6 6 6 6 6 6 7 8 8 8 9 9 8 10 10 10 8 8 7 8 7 7 7 7
13 15 15 16 14 14 14 10 9 8 6 6 6 5 5 4 3 3 3 4 4 5 5 5 5 5 5 6 7 6 6 8 8 10 10 10 9 9 8 7 7 7 7 9
10 9 10 10 11 12 12 11 9 9 8 7 5 4 4 3 5 4 4 3 3 3 4 4 4 4 5 5 6 5 6 6 7 8 8 9 10 10 8 9 8 8 8 9
14 13 13 13 13 11 12 11 10 9 9 8 6 6 6 5 5 5 3 4 3 5 6 2 4 2 5 5 5 4 5 6 6 7 7 7 8 9 9 9 8 8 7 6
10 13 14 14 14 14 13 13 11 11 11 8 6 7 6 4 5 4 2 5 6 5 6 4 2 1 3 4 3 4 4 5 6 6 6 6 7 7 7 8 8 9 8 8
9 9 12 14 13 13 13 12 12 12 11 9 10 6 6 6 5 5 2 3 7 9 6 2 4 2 0 1 1 3 3 3 4 4 4 5 5 6 6 6 6 6 6 7
8 8 7 9 12 13 12 11 11 10 11 9 7 6 4 9 7 6 9 9 7 6 7 3 2 3 3 2 1 1 1 2 2 2 3 2 3 3 3 4 4 4 4 4
7 7 8 8 6 9 11 12 12 11 10 10 10 11 8 5 6 6 4 10 8 9 6 6 8 6 0 3 2 2 2 1 1 1 1 2 2 2 1 3 3 3 2 3
7 8 7 6 6 7 9 8 9 10 10 9 9 8 7 6 3 6 5 6 7 7 6 6 6 5 4 3 3 3 3 2 2 2 2 3 2 2 2 2 2 3 3 2
6 7 7 8 5 4 8 8 7 7 8 9 8 6 7 5 4 5 6 6 6 7 5 6 6 5 2 3 3 3 3 3 3 3 3 3 2 3 3 3 3 4 4 3
5 5 5 5 5 5 5 6 6 5 6 6 4 5 5 4 4 4 5 6 6 7 7 6 5 5 5 5 3 3 4 4 3 4 4 4 5 4 4 4 4 4 5 5
1 2 5 4 5 5 6 6 6 5 5 5 6 4 5 4 4 4 5 6 6 6 6 6 6 6 6 5 5 5 4 3 3 4 4 4 3 4 4 5 5 5 4 5
Wind_Direction
74 90 74 29 35 29 60 59 49 80 59 32 33 36 34 18 15 5 6 3 3 360 357 356 350 342 341 337 340 339 345 343 349 355 339 336 336 337 335 327 326 319 308 294
110 120 86 58 46 50 53 44 71 75 64 2 33 37 22 21 6 3 8 4 7 0 0 356 351 341 337 341 342 351 349 352 357 354 346 347 348 347 349 350 345 340 339 338
142 203 235 55 0 45 64 44 34 44 343 353 21 11 6 7 5 10 10 8 6 4 359 357 350 341 344 340 349 353 358 359 4 354 354 357 353 2 357 350 351 0 11 6
47 253 138 108 18 335 71 58 30 18 10 356 344 342 27 15 9 17 14 10 11 2 358 354 353 345 342 349 353 5 4 6 5 358 359 2 6 5 359 353 353 13 22 32
195 50 111 75 21 341 347 47 32 7 357 346 335 268 65 31 24 19 17 12 7 5 356 354 359 347 345 351 358 11 7 10 1 360 4 8 7 1 359 352 21 45 48 55
208 128 85 23 321 303 270 101 19 3 354 348 329 66 54 3 9 13 20 17 3 4 1 3 0 348 351 356 2 17 13 4 2 5 11 7 1 359 2 5 42 60 70 68
24 88 101 347 332 298 250 12 340 351 349 344 359 354 333 15 22 16 16 14 360 9 7 8 359 353 357 0 8 20 26 9 10 12 13 6 8 11 14 12 62 68 71 73
349 76 90 7 339 40 346 306 330 342 343 337 338 349 9 9 13 14 12 13 11 11 8 10 5 359 359 5 3 19 41 14 16 13 12 9 16 21 22 19 60 71 78 76
5 43 354 338 278 269 279 314 329 329 331 332 328 351 8 2 8 15 10 15 14 10 10 17 10 6 360 358 3 22 37 27 16 18 22 16 18 20 17 24 42 68 67 74
301 14 331 306 277 230 333 324 322 319 320 318 327 339 360 4 10 5 16 15 11 12 15 17 13 11 5 358 3 22 35 46 15 24 24 27 22 25 24 18 41 52 81 81
277 337 326 237 266 317 320 319 317 321 316 314 316 354 356 22 16 11 11 19 15 17 16 17 17 15 9 2 4 16 32 51 37 21 26 24 34 33 30 32 37 47 63 78
300 331 304 275 297 316 312 318 316 311 312 306 299 342 29 32 29 13 18 15 17 25 20 18 19 23 11 6 7 13 25 37 54 27 25 26 18 30 42 42 41 45 46 60
264 294 282 280 291 296 309 314 306 298 286 288 287 258 88 44 53 50 19 23 27 22 22 19 21 26 18 8 10 18 31 20 42 65 33 23 18 19 28 28 43 40 41 50
292 299 287 346 326 324 314 318 302 274 226 200 164 127 95 54 78 42 33 29 25 29 29 22 27 27 20 14 20 19 26 30 37 46 59 39 26 24 29 34 36 32 31 40
342 328 312 317 335 350 355 10 75 80 101 119 115 98 96 72 55 53 49 37 32 37 38 33 33 28 19 18 32 30 23 24 30 41 57 68 46 43 35 37 37 35 24 26
330 7 5 10 3 14 19 29 51 62 75 91 104 100 86 60 55 73 55 37 13 24 32 37 45 29 17 20 34 36 34 18 29 34 39 48 54 51 44 42 45 38 32 15
14 9 360 4 4 12 18 19 25 30 55 64 69 81 92 85 85 74 59 31 23 18 20 30 53 48 26 23 33 36 38 33 19 44 36 38 45 44 52 51 46 45 42 27
21 21 18 12 6 9 14 20 25 26 26 24 42 63 58 47 44 54 51 41 6 9 31 43 55 68 50 34 32 34 40 44 42 40 46 41 43 47 48 52 48 44 38 36
31 31 28 30 22 19 17 17 20 26 21 22 24 44 35 27 24 41 49 20 327 19 35 50 98 324 60 49 356 31 43 46 50 50 47 50 55 44 48 52 52 51 54 54
22 23 31 34 32 27 26 21 27 35 22 18 41 31 38 23 353 350 352 34 19 11 0 27 263 31 62 108 324 66 47 47 51 57 45 57 54 60 61 45 49 51 48 53
27 19 19 29 35 35 34 31 28 35 32 28 37 32 357 30 15 305 355 82 35 9 348 332 306 322 115 105 261 68 68 69 58 50 51 58 67 66 61 60 53 40 37 49
13 25 26 16 29 40 36 38 35 35 34 22 1 358 13 33 16 64 60 29 345 18 328 319 312 18 7 184 21 90 84 92 89 84 90 83 74 80 90 83 76 61 50 36
14 7 15 26 28 32 43 37 35 37 37 30 27 28 29 36 23 19 358 13 356 350 317 26 357 340 82 253 283 272 248 194 188 154 131 108 136 148 115 133 137 118 105 97
15 17 9 2 12 31 22 16 15 33 46 46 48 29 25 21 33 29 359 350 357 335 15 9 354 332 270 265 262 258 261 257 248 236 206 174 187 198 168 181 177 173 152 174
5 358 4 2 347 353 356 3 9 20 21 41 42 39 27 30 28 357 4 357 357 347 357 1 335 333 289 283 275 264 252 241 233 212 232 229 210 228 219 221 192 189 199 207
355 357 354 9 17 8 4 350 343 5 3 13 25 19 18 18 11 357 8 2 7 359 5 356 359 352 358 356 329 297 278 265 234 233 229 231 220 213 215 219 226 224 213 210
300 284 354 11 25 10 13 356 345 349 359 350 340 4 352 347 12 344 4 0 360 3 1 339 356 3 356 353 352 347 325 293 283 276 253 249 246 220 217 220 217 222 231 232